weather.gov     
National Weather Service

Terminal Aerodrome Forecast
NWS Homepage
This page is being discontinued on March 12, 2014.
The same data is available at this site. Please update your bookmarks.
Thank you, and we apologize for the inconvenience.
Please send an email to SR-SRH.Webmaster@noaa.gov with any concerns.


Current Version
Previous Version:    01  02  03  04  05  06  07  08  09  10  11  12  13  14  15  16  17  18  19  20  21  22  23  24  25  26  27  
[Printable]
120
FTAK31 PAJN 311900 AAA
TAFASI
TAF AMD
PASI 311952Z 3120/0118 12006KT P6SM -SHRA SCT015 BKN030 OVC040
      TEMPO 3120/3122 11012G20KT 2SM PLRA BR BKN025
     FM010600 12012G22KT P6SM -RA OVC025 WS020/13035KT
     FM011000 14015G28KT 4SM -RA BR BKN015 OVC025 WS020/16045KT
     FM011600 15010KT 6SM -RA OVC025=


U.S. Dept. of Commerce
NOAA National Weather Service
1325 East West Highway
Silver Spring, MD 20910
E-mail: w-nws.webmaster@noaa.gov
Page last modified: May 16, 2007
NATIONAL WEATHER SERVICE: for Safety, for Work, for Fun - FOR LIFE